Location: Unspecified
(0.0000°N, 0.0000°E)
Time: 17:06:21
(UTC+02:00)

JASON 3 - Pass Details

Date: 29 September 2021
Orbit: 1332 x 1343 km, 66.0° (Epoch: 27 October)

Event Time Altitude Azimuth Distance (km) Brightness Sun altitude
Rises 20:38:08 0° 339° (NNW) 4,345 ? -12.0°
Reaches altitude 10° 20:40:58 10° 339° (NNW) 3,373 ? -12.7°
Maximum altitude 20:49:10 86° 249° (WSW) 1,343 ? -14.7°
Drops below altitude 10° 20:57:22 10° 161° (SSE) 3,374 ? -16.8°
Sets 21:00:11 0° 161° (SSE) 4,347 ? -17.5°
